Location: Tel Aviv
(32.0670°N, 34.7670°E)
Time: 08:51:12
(UTC+02:00)

Transit 2A Rocket - Pass Details

Date: 10 December 2023
Orbit: 590 x 905 km, 66.7° (Epoch: 01 March)

Event Time Altitude Azimuth Distance (km) Brightness Sun altitude
Exits shadow 05:35:39 14° 313° (NW) 1,774 6.3 -11.5°
Maximum altitude 05:39:11 39° 249° (WSW) 988 5.2 -10.8°
Drops below altitude 10° 05:43:40 10° 181° (S) 2,146 7.6 -9.9°
Sets 05:46:13 0° 173° (S) 3,115 8.6 -9.4°
